RH
42 42 42 42 43 44 45 45 45 44 43 42 40 40 40 42 43 45 46 46 45 44 43 42 43 44 44 45 46 46 45 44 43 43 43 44 44 45 47 48 49 50 50 52 52 53 54 55 55 56 56 56 56 56 57 58 60 61 63 65 68 71 72 74 74 74 74 76 78 81 84 84 83 82 81 84 88 92 93 93 94 97 100 100 100 100
42 42 42 43 44 46 46 46 45 44 44 44 44 44 44 46 47 48 49 48 46 44 42 42 42 42 43 42 42 42 42 41 41 42 42 43 45 46 48 50 51 52 54 54 55 55 55 55 55 55 55 55 56 56 56 57 58 60 63 66 70 72 73 74 74 74 74 76 77 79 82 83 82 81 80 83 86 88 87 86 87 90 97 99 100 100
44 44 44 45 46 48 48 48 47 47 48 49 49 50 50 52 52 50 48 46 44 42 42 42 42 42 42 41 40 40 40 40 42 42 44 45 47 49 51 53 54 54 54 54 54 54 54 55 55 55 55 55 55 55 55 56 57 58 61 64 67 68 69 70 71 72 72 74 76 78 81 81 82 82 82 84 85 86 86 84 83 85 91 98 100 100
47 47 47 48 50 52 54 54 54 54 54 54 54 54 54 53 52 49 46 44 42 42 42 42 42 42 41 40 40 41 42 42 43 44 46 48 50 53 55 54 53 51 50 50 51 53 55 57 58 59 59 58 57 57 56 56 56 58 60 62 64 65 66 66 66 68 70 73 76 80 82 83 84 85 85 85 86 88 88 85 83 83 87 95 99 100
52 52 52 54 57 60 62 62 62 60 58 55 53 51 50 49 47 45 44 44 44 44 43 43 42 42 42 42 42 42 43 44 45 46 48 51 54 56 54 50 46 44 44 46 50 54 58 60 63 64 65 64 64 62 61 60 60 60 60 62 63 63 64 65 67 70 74 78 82 85 86 86 86 85 84 86 87 89 89 88 86 85 86 92 97 99
58 58 58 62 65 67 67 65 62 59 54 50 47 45 44 44 44 45 46 47 46 46 44 44 44 44 44 44 43 43 44 45 47 49 53 56 57 54 48 44 42 42 43 47 51 56 60 62 64 66 67 68 68 66 65 64 64 64 64 64 64 64 65 67 71 76 80 83 86 88 88 87 84 82 82 83 85 87 89 90 89 88 88 91 95 98
64 62 62 66 68 67 62 58 55 52 48 45 43 42 43 45 48 50 51 50 48 46 44 44 44 44 44 44 43 44 45 48 52 56 60 58 54 48 43 42 42 43 45 49 54 58 60 62 64 65 66 66 67 67 67 67 67 66 65 65 66 66 68 71 74 76 79 81 83 85 85 84 83 82 82 82 84 85 87 90 90 91 90 92 94 96
68 65 65 65 63 60 55 52 50 47 45 44 44 46 49 52 54 54 53 49 46 44 42 42 42 43 44 44 45 48 52 57 62 64 62 55 48 43 42 42 42 44 48 52 57 60 63 66 68 71 74 76 77 78 78 76 74 72 70 69 70 71 72 73 74 76 77 79 82 85 88 88 88 88 88 88 88 88 89 90 92 94 94 94 94 95
69 66 65 63 62 60 57 54 51 49 48 48 51 56 61 63 60 55 49 45 42 41 40 40 42 44 46 51 56 61 66 69 69 64 56 48 44 42 42 42 44 47 50 54 59 64 70 77 82 86 90 92 92 92 90 89 88 85 83 82 80 78 76 74 74 76 78 78 80 85 92 95 97 97 96 96 96 95 96 96 97 98 98 97 96 95
69 66 65 63 63 62 62 59 56 54 53 58 64 72 74 68 60 52 45 43 42 40 40 42 47 54 63 70 72 72 70 66 60 52 46 43 42 42 42 44 46 50 54 58 65 74 84 92 95 95 93 92 89 87 86 87 88 87 85 80 79 80 78 76 76 77 79 79 81 84 89 92 94 96 97 98 98 98 99 100 99 99 98 98 96 94
69 66 64 64 65 66 68 65 63 63 65 74 78 78 72 61 54 48 47 46 46 45 46 53 62 74 83 80 74 65 58 51 46 42 41 40 42 42 44 48 52 58 66 74 82 89 93 95 93 89 83 83 84 84 84 86 86 84 81 76 76 77 76 75 76 78 81 81 82 83 83 84 85 86 88 89 90 92 94 96 98 98 98 98 95 92
72 70 70 74 76 77 76 74 74 76 80 82 77 69 60 52 49 50 53 54 55 58 66 77 81 79 73 62 54 47 43 42 42 42 42 43 44 47 50 58 68 77 87 93 93 89 79 74 70 67 66 65 65 67 72 74 76 76 74 72 71 71 70 71 74 77 80 79 78 78 77 78 78 79 80 80 82 85 88 90 92 94 96 95 93 92
74 76 81 85 85 82 78 76 76 77 75 70 64 58 53 50 51 54 60 63 68 76 84 80 71 60 50 45 42 41 41 42 43 44 45 47 50 55 62 76 87 93 91 80 69 60 55 54 54 55 56 55 56 56 58 60 61 62 62 62 62 62 63 66 70 74 77 77 76 76 76 76 77 78 80 80 81 83 86 88 89 90 94 94 92 92
73 79 85 83 77 71 65 63 62 60 57 53 51 50 50 51 54 59 65 71 76 77 74 62 52 45 42 42 42 43 44 46 47 48 49 52 56 64 76 90 93 87 71 58 52 50 51 53 55 57 57 57 57 58 58 58 58 59 60 60 60 60 61 63 66 70 73 74 75 76 76 77 78 80 83 84 84 86 88 89 90 92 93 93 92 92
78 82 82 74 66 58 53 51 49 48 47 46 46 48 50 54 60 66 73 74 72 66 58 51 47 45 44 44 44 45 47 48 50 50 52 56 63 72 85 90 84 72 57 52 52 53 54 57 58 58 58 58 58 59 60 60 61 61 61 62 62 62 63 65 67 70 72 74 76 76 76 78 80 82 86 87 88 89 90 91 92 94 94 94 93 92
83 81 76 68 60 54 49 47 46 46 46 47 49 52 55 60 65 70 75 72 65 58 54 54 53 51 49 47 47 48 50 52 54 55 58 64 72 80 88 87 78 66 56 54 54 56 58 61 62 61 59 58 60 60 61 62 62 64 67 70 72 76 78 79 82 85 90 90 88 85 83 81 82 84 87 89 89 90 90 92 93 94 95 95 94 93
78 71 64 60 56 52 48 48 48 48 50 53 55 58 61 65 70 73 73 68 63 60 60 61 61 59 57 52 51 52 54 58 62 67 73 80 84 86 87 81 72 62 56 57 60 63 66 66 63 60 58 59 60 60 60 60 64 69 76 83 90 93 92 91 92 92 92 90 91 92 92 90 88 88 88 88 88 89 90 90 92 93 94 94 93 93
64 57 53 53 52 50 50 50 51 53 55 56 58 61 65 70 74 74 72 70 69 68 68 67 65 64 64 63 59 57 60 70 78 85 89 90 86 80 74 67 61 58 58 63 67 70 70 66 62 59 58 59 60 61 64 70 76 80 80 83 83 82 78 74 74 76 79 84 87 89 92 94 95 93 90 89 88 88 88 89 90 90 90 90 90 90
53 50 50 51 52 53 53 53 54 55 57 61 68 75 79 80 79 78 78 76 73 71 68 66 65 64 66 66 63 61 63 74 80 83 85 78 70 62 58 56 56 60 68 74 76 73 66 61 59 59 62 66 71 76 80 85 84 79 72 68 64 62 62 63 64 66 69 74 77 81 86 92 96 98 96 92 90 88 88 89 88 88 88 90 90 90
52 52 53 55 57 59 58 57 57 60 68 80 89 92 91 86 82 78 74 70 66 63 60 60 60 60 60 61 61 60 61 67 74 78 76 68 62 58 57 60 67 75 81 78 71 63 58 58 59 62 65 70 74 78 79 75 70 66 63 62 62 62 62 64 66 67 68 71 74 80 84 88 92 94 95 92 90 88 87 87 88 88 89 90 90 92
56 57 58 60 62 63 62 62 67 76 88 94 96 94 86 78 72 67 62 59 58 57 57 59 60 60 61 62 62 62 64 70 74 75 70 67 64 65 69 81 89 90 81 70 63 59 58 60 60 62 65 66 67 66 67 67 67 66 63 62 63 64 68 72 76 77 76 76 80 84 85 86 88 90 90 89 88 87 87 87 88 89 90 90 91 92
62 64 64 65 66 67 69 76 87 96 99 96 89 79 68 62 59 58 56 56 58 60 62 64 64 65 66 68 70 72 76 82 82 78 70 70 71 74 83 88 84 76 67 62 60 60 62 65 67 70 72 72 71 70 67 64 62 62 62 64 67 70 76 86 92 94 94 96 95 93 90 90 89 89 89 88 88 88 88 89 89 90 90 90 91 92
68 70 69 70 74 79 87 93 95 93 87 77 67 60 56 55 56 58 60 63 66 68 70 70 71 72 76 80 83 85 86 81 76 71 72 77 81 84 84 78 71 66 62 61 62 64 67 71 74 76 76 72 69 66 64 63 64 65 66 67 68 70 75 83 87 87 84 84 89 94 96 94 93 92 90 90 90 91 91 92 92 92 92 92 92 92
71 71 71 76 84 92 96 96 90 80 66 58 53 52 53 56 60 64 68 72 76 78 79 77 77 78 80 82 84 83 78 70 68 73 84 87 85 79 71 66 64 63 61 61 64 69 74 76 77 76 73 70 68 67 66 67 67 67 67 66 66 67 69 70 71 74 80 88 94 97 97 96 94 93 92 92 92 92 93 94 94 95 95 94 94 94
67 68 71 82 92 97 96 88 76 63 55 54 54 56 58 63 68 73 76 79 82 84 85 83 81 79 76 74 74 71 64 63 72 84 95 88 79 70 62 60 61 62 62 64 69 76 80 79 77 74 72 70 70 69 68 67 66 65 64 67 70 74 78 80 84 88 93 96 96 96 94 93 92 91 90 90 90 90 92 94 96 98 98 98 97 97
64 65 72 87 94 94 87 74 64 58 56 58 60 63 67 72 76 79 80 79 78 78 79 80 80 77 72 70 66 63 59 66 80 92 92 82 72 64 58 58 61 66 70 72 76 78 78 74 71 69 68 68 68 68 66 64 62 64 70 80 88 92 92 93 93 93 93 92 92 91 90 89 88 88 88 87 87 87 88 92 95 98 100 100 99 99
68 73 83 90 90 83 70 61 57 57 58 61 64 68 71 75 78 79 77 74 73 74 77 78 77 74 70 66 63 62 66 78 85 85 78 72 68 64 60 61 66 73 78 78 76 74 71 68 66 64 65 66 66 66 65 64 66 72 84 90 91 88 84 82 81 81 84 85 86 87 87 88 88 89 90 89 88 87 87 90 94 98 100 100 100 100
81 87 93 89 79 68 58 56 57 59 62 64 66 69 71 74 77 78 76 73 73 74 78 78 76 73 70 67 66 67 74 78 76 69 64 64 66 66 64 67 73 78 81 78 74 69 65 64 64 64 65 67 68 68 67 69 72 77 82 78 73 70 71 74 76 78 81 84 86 88 90 90 92 93 94 94 94 94 92 94 97 99 100 100 100 100
87 87 84 75 66 58 56 57 58 61 64 66 67 69 70 74 76 78 76 76 77 80 82 80 77 74 71 70 70 70 71 66 61 58 59 65 69 70 67 71 74 78 78 76 70 64 61 60 61 62 64 66 66 67 68 71 72 72 69 67 68 70 73 76 79 82 85 87 89 91 92 93 94 96 97 98 98 98 98 98 99 100 100 100 100 100
80 77 71 63 58 56 56 58 60 62 65 66 68 69 70 73 76 79 79 82 85 86 85 82 78 74 74 74 73 70 64 58 56 57 62 69 72 71 68 73 76 78 79 76 70 64 58 57 58 59 61 62 64 65 66 65 64 63 64 68 72 75 77 80 83 86 89 91 93 94 94 95 96 97 98 99 98 98 97 97 98 100 100 100 100 100
72 69 63 58 56 56 57 60 62 64 66 67 68 70 71 74 78 82 86 89 90 90 87 82 78 76 77 78 74 69 63 60 59 61 65 71 73 73 74 78 80 79 78 76 72 67 61 58 58 58 61 63 64 64 63 62 62 65 68 73 76 78 79 82 86 90 93 94 96 96 96 97 98 98 99 99 98 96 94 94 96 99 100 100 100 100
69 65 60 58 57 58 60 61 63 64 66 67 68 70 71 74 76 81 86 89 90 89 86 83 80 79 79 78 76 71 66 64 62 63 66 72 74 77 80 82 81 78 74 73 74 74 68 66 64 63 65 65 65 64 63 62 64 67 72 76 78 81 81 87 92 95 96 97 97 97 98 99 99 99 99 99 98 94 90 90 93 97 100 100 100 100
67 63 60 58 59 60 61 62 63 64 65 66 67 68 70 72 74 76 79 82 85 86 86 85 84 81 78 76 73 70 67 65 63 62 65 73 78 81 82 82 79 76 71 70 72 74 74 73 72 70 68 67 66 65 64 63 66 70 74 79 84 88 89 93 96 98 98 98 98 99 99 100 100 100 100 100 99 97 93 90 92 96 99 100 100 100
65 62 60 60 61 62 62 63 63 64 64 65 66 67 68 70 72 73 74 76 79 82 83 84 83 81 78 76 72 70 66 65 64 64 68 78 84 87 85 82 78 74 72 72 73 74 75 76 74 72 70 68 66 66 64 65 67 71 76 83 90 94 97 98 98 99 98 99 99 100 100 100 100 100 100 100 100 99 98 97 97 98 99 100 100 100
63 61 61 62 62 62 62 62 63 63 64 65 66 67 68 69 70 71 72 74 76 76 78 79 80 80 80 78 77 74 69 67 66 69 74 86 92 92 89 82 76 74 75 76 78 78 76 76 74 73 72 70 68 66 65 65 67 71 76 84 92 96 98 97 98 98 99 99 100 100 100 100 100 100 100 100 100 100 100 100 100 100 100 100 100 100
63 62 62 62 62 62 62 62 62 63 64 64 65 66 68 69 70 71 73 74 76 76 77 79 80 80 81 81 80 78 74 72 72 76 83 92 96 95 90 80 76 75 79 80 80 80 78 77 76 74 74 72 70 66 64 64 65 69 74 81 86 90 92 92 94 97 99 100 100 100 100 100 100 100 100 100 100 100 100 100 100 100 100 100 100 100
63 62 62 61 61 62 62 62 62 63 64 64 66 67 68 70 71 72 74 76 78 79 80 83 84 84 84 84 83 81 80 79 82 87 93 96 96 93 86 80 77 78 82 84 84 82 82 80 78 76 74 72 70 67 64 64 65 67 71 76 80 84 87 90 94 98 99 100 100 100 100 100 100 100 100 100 100 100 100 100 100 100 100 100 100 100
63 62 62 62 62 62 63 63 64 64 65 66 67 68 69 71 72 74 75 76 78 79 80 81 83 84 83 84 84 84 84 88 92 95 98 97 94 90 86 84 82 83 85 87 88 88 88 84 80 76 73 70 69 67 66 66 67 67 68 73 78 83 87 90 95 98 100 100 100 100 100 100 100 100 100 100 100 100 100 100 100 100 100 100 100 100
63 63 63 63 63 64 65 65 66 66 67 68 69 70 71 73 74 74 74 74 74 74 74 76 79 80 80 80 83 86 90 94 95 94 92 90 89 90 90 90 89 87 87 90 92 93 92 88 83 79 75 73 71 69 68 68 69 69 70 72 76 80 85 90 93 96 100 100 100 100 100 100 100 100 100 100 100 100 100 100 100 100 100 100 100 100
65 65 64 64 65 66 66 67 67 68 68 69 71 72 73 74 73 72 70 71 70 71 71 72 74 76 78 82 87 92 96 94 91 86 81 80 83 88 93 94 94 93 93 94 95 94 92 87 84 82 80 78 76 74 71 71 70 70 71 73 75 78 85 90 93 95 99 100 100 100 100 100 100 100 100 100 100 100 100 100 100 100 100 100 100 100
67 66 66 66 66 67 67 67 68 68 70 71 72 72 72 72 71 70 69 70 70 70 70 70 72 75 80 87 91 92 88 83 79 76 76 78 81 86 93 94 95 95 95 93 90 87 84 83 82 82 80 79 78 76 74 73 72 71 73 76 78 81 88 90 93 96 99 99 99 99 100 100 100 100 100 100 100 100 100 100 100 100 100 100 100 100
68 68 68 67 67 67 66 68 69 70 71 72 72 71 70 71 72 72 72 71 70 70 69 71 76 82 89 88 85 80 75 74 73 74 76 79 84 89 94 95 96 95 93 90 87 85 84 83 83 83 82 80 79 78 76 73 72 72 74 76 81 86 90 90 92 94 99 98 98 99 99 99 99 100 100 100 100 100 100 100 100 100 100 100 100 100
68 68 69 69 69 69 69 70 71 71 71 70 70 70 70 71 72 73 74 74 73 72 73 77 83 88 90 83 76 72 70 71 73 76 78 82 88 94 97 96 94 94 93 92 90 86 83 82 83 83 82 81 80 80 79 76 74 74 74 78 84 88 88 90 90 92 97 98 98 98 99 98 98 99 99 99 99 99 100 100 100 100 100 100 100 100
70 70 70 70 71 71 72 72 71 71 71 71 71 71 71 72 73 74 76 76 75 75 78 82 86 87 84 77 73 70 70 73 74 77 80 86 91 94 95 94 94 94 95 94 92 88 85 82 82 81 81 82 83 82 81 79 76 74 74 84 90 92 91 92 93 95 98 98 98 98 98 98 98 98 98 98 99 99 100 100 100 100 100 100 100 100
71 70 71 71 71 71 72 72 71 71 72 72 73 73 72 73 74 76 76 76 77 79 83 86 86 83 78 74 73 73 74 76 77 80 84 88 91 93 92 93 94 95 95 95 94 92 90 87 85 84 84 85 85 84 82 79 78 78 82 92 96 96 94 94 94 96 98 99 98 98 98 98 98 96 96 97 98 99 99 99 100 100 100 100 100 100
72 72 72 72 72 72 71 71 71 71 72 72 72 72 72 73 74 76 76 78 81 84 86 86 84 82 79 77 76 76 77 78 80 83 86 87 87 88 88 90 92 94 95 95 95 95 94 93 92 92 90 89 86 83 82 83 86 90 94 96 96 94 94 92 94 96 98 99 99 99 98 97 96 95 95 97 98 98 98 98 99 99 99 100 100 100
74 74 73 73 72 72 71 71 72 72 72 72 72 72 73 74 75 76 78 81 85 87 86 83 82 81 80 79 78 79 80 82 82 83 83 83 84 85 86 86 88 90 93 94 94 94 95 95 94 94 94 91 88 85 85 89 92 94 94 95 94 94 94 94 94 96 98 98 99 98 98 96 95 94 94 95 96 98 98 98 99 99 99 99 100 100
75 74 74 74 74 73 72 72 72 72 72 72 72 73 73 74 76 78 80 84 86 86 84 81 80 80 80 79 79 81 83 84 84 82 82 82 83 84 85 86 87 88 90 92 93 94 95 94 93 93 95 94 92 89 88 92 94 95 95 95 94 93 94 95 96 97 98 98 98 98 98 96 94 94 93 93 94 95 97 98 99 99 99 100 100 100
77 76 76 76 76 75 74 73 73 73 74 74 74 74 74 74 76 78 82 85 86 86 84 82 82 81 80 80 81 82 83 83 83 82 82 82 83 84 85 86 86 87 87 88 90 93 94 93 92 92 94 94 94 93 91 92 93 94 95 95 94 94 95 96 97 98 98 98 98 98 96 96 94 92 91 91 92 94 96 97 98 99 99 100 100 100
77 77 76 76 76 76 75 74 74 75 76 76 76 76 76 76 76 79 82 84 85 84 83 83 83 83 83 82 82 82 83 84 83 82 82 83 84 85 86 87 87 86 85 84 87 92 94 94 92 90 92 94 94 94 94 93 93 93 93 94 95 96 96 96 97 98 98 98 98 96 95 94 93 92 89 89 90 92 93 95 97 98 98 99 100 100
76 76 76 76 77 77 76 76 77 78 78 79 79 79 79 79 79 80 82 83 84 83 82 82 83 84 84 84 83 83 84 85 84 84 84 86 86 87 88 88 88 86 84 82 85 90 95 94 90 87 88 92 94 94 94 94 94 93 92 94 95 96 96 97 97 98 98 98 96 95 93 92 91 90 88 87 88 90 91 93 96 98 98 99 100 100
Wind_Speed
31 32 32 33 34 34 35 34 34 33 33 33 33 33 33 33 33 33 34 34 34 35 35 36 36 36 37 37 37 38 38 39 39 40 40 41 41 41 42 42 43 43 43 43 43 43 43 43 43 43 42 42 42 41 41 40 40 40 40 39 38 37 35 34 33 32 32 32 32 32 33 32 32 32 32 32 32 32 32 31 30 30 30 31 31 31
31 32 32 33 34 34 34 34 33 32 32 32 33 33 33 34 34 34 34 33 34 34 34 35 35 36 36 37 37 38 39 39 40 40 40 40 41 41 41 42 42 42 43 43 43 43 43 42 42 42 42 41 41 40 40 40 40 40 40 39 38 36 35 34 33 32 32 32 33 33 33 33 33 33 33 32 32 32 32 31 31 31 31 32 32 32
30 31 31 31 32 32 32 32 31 30 31 32 33 33 34 34 34 33 33 33 33 33 34 34 35 36 36 37 37 37 38 38 39 39 40 40 40 40 40 41 41 42 42 43 43 42 42 42 41 41 41 40 40 39 39 39 39 39 39 39 38 36 35 34 33 32 32 32 33 33 32 33 32 32 32 32 32 32 32 32 32 32 32 32 33 33
29 29 30 30 30 31 31 31 30 29 29 31 32 33 34 33 33 32 32 32 32 33 34 34 35 35 36 36 36 37 37 38 39 39 40 40 40 39 39 39 40 41 42 42 42 41 41 40 40 39 39 39 38 38 38 38 37 37 37 37 37 36 35 34 33 33 33 32 32 32 32 32 32 32 32 32 32 32 33 33 33 33 32 33 33 33
27 27 28 28 28 29 31 30 29 29 30 31 32 32 32 32 31 31 31 31 32 32 33 34 35 35 35 35 36 37 38 39 39 40 40 39 39 38 38 38 39 40 41 41 41 40 39 39 38 37 37 37 36 36 36 36 36 36 36 36 36 36 35 34 33 32 32 32 31 31 31 31 32 32 33 33 33 33 33 33 33 33 33 33 33 33
28 28 29 28 28 29 30 31 30 31 32 32 32 32 32 31 31 30 30 30 31 32 33 34 35 35 35 36 36 37 38 39 39 39 38 37 37 36 36 37 38 40 41 41 40 39 39 38 38 37 37 36 36 36 36 36 35 35 35 35 35 35 34 34 33 32 31 31 31 31 31 31 32 33 34 34 34 34 34 33 33 33 33 33 33 33
29 31 31 30 30 31 31 31 31 32 32 32 32 32 32 30 30 29 29 30 31 32 34 34 35 35 35 35 35 35 36 36 35 34 34 34 34 34 35 37 38 40 40 40 40 39 39 39 39 39 38 38 37 37 37 37 37 37 36 36 35 35 34 33 32 31 31 30 30 31 31 32 33 33 34 34 35 35 34 34 34 34 34 33 33 33
29 31 31 31 31 31 31 30 30 30 31 31 31 30 29 28 28 28 29 30 31 32 33 34 34 33 33 32 32 32 32 31 31 31 31 32 33 34 35 37 38 39 39 39 39 39 39 39 39 39 39 38 38 38 38 38 38 37 37 37 36 35 34 33 32 31 31 30 30 30 31 32 33 33 34 34 34 34 35 35 35 35 34 34 33 32
27 29 30 30 30 29 28 29 29 29 30 30 29 27 25 25 26 27 29 30 31 32 32 33 33 32 31 30 30 29 29 29 29 30 30 32 33 35 36 37 38 39 39 39 39 38 38 38 38 38 37 36 35 35 35 35 35 36 36 36 35 35 34 33 32 31 30 30 30 30 30 31 31 32 32 32 32 33 33 34 34 34 34 32 31 30
27 27 27 29 29 28 26 26 27 29 29 27 26 24 23 23 24 26 27 29 31 32 33 33 32 30 29 28 27 27 28 29 30 31 33 34 35 36 37 37 38 38 38 38 38 37 36 35 35 33 32 31 31 31 31 31 32 32 33 33 33 34 33 32 32 31 30 30 30 30 30 30 30 30 30 29 29 30 30 30 30 30 29 28 27 26
26 27 27 27 28 27 25 24 25 27 26 24 22 22 22 23 24 23 22 25 29 34 35 33 29 25 24 24 25 27 28 30 32 33 34 35 36 36 36 36 37 37 37 37 36 35 34 32 31 29 29 29 29 29 28 29 29 30 31 32 33 34 33 33 32 32 31 31 31 30 30 30 30 30 29 29 28 28 28 28 28 27 26 25 24 24
24 25 25 24 24 23 22 22 23 23 22 20 19 19 22 24 25 24 22 23 28 32 31 27 25 24 25 26 28 30 31 32 33 33 34 33 33 33 33 33 32 32 32 30 29 28 28 29 29 29 29 29 29 28 28 29 30 31 32 33 33 33 33 33 33 33 33 33 32 32 31 30 30 30 30 30 29 28 28 29 29 28 26 25 25 25
24 23 21 20 19 18 18 19 18 18 18 19 17 15 18 24 27 27 26 27 28 28 26 25 26 28 29 31 32 32 33 33 32 32 32 31 31 31 31 30 30 29 26 24 24 25 28 30 31 31 31 30 30 31 31 31 31 32 32 33 32 32 32 32 32 32 32 32 32 31 30 30 30 30 31 30 29 28 28 28 29 28 28 27 26 26
22 21 18 16 16 17 19 20 19 18 20 22 22 23 25 27 28 28 28 27 26 26 26 27 28 31 33 34 33 33 32 31 30 30 30 30 31 31 30 29 27 26 24 24 26 29 30 31 31 31 31 31 31 32 32 32 32 32 32 32 32 32 31 31 31 31 31 30 30 30 30 30 30 30 30 30 29 28 27 28 28 28 28 28 27 27
18 15 11 10 12 17 22 23 23 22 24 27 28 28 29 28 28 26 23 22 24 26 28 28 30 32 33 33 32 31 30 29 28 27 29 30 31 30 28 26 26 25 26 27 29 31 31 30 29 29 30 31 32 32 32 32 33 33 32 32 31 31 30 30 29 29 29 29 29 29 29 29 29 29 29 28 28 27 27 27 28 28 28 28 28 28
16 14 9 10 12 18 24 25 25 25 27 28 28 28 27 26 25 23 21 21 23 25 25 21 20 22 26 31 31 28 27 26 26 26 27 29 29 27 25 25 25 26 28 30 30 30 29 28 27 28 29 31 32 32 32 32 32 32 32 31 30 29 28 28 28 28 28 28 29 29 29 29 28 28 28 27 27 27 27 27 28 28 28 29 29 28
18 17 14 12 14 20 27 28 28 27 27 28 27 27 25 24 23 22 22 22 22 21 19 13 10 11 13 23 28 27 25 24 25 26 26 26 27 27 26 26 26 28 30 30 29 27 26 26 26 27 29 30 31 32 32 32 33 33 33 33 31 30 29 30 30 30 29 30 30 30 29 29 28 28 27 27 27 27 27 28 28 29 29 29 29 29
21 22 21 17 18 23 27 28 27 27 27 27 26 26 25 24 23 23 22 21 19 16 14 10 9 8 9 9 19 27 24 24 24 24 25 26 27 28 27 28 29 30 30 28 25 24 24 24 26 27 29 30 31 32 33 33 33 32 31 30 29 29 31 32 32 32 31 30 30 30 30 30 29 28 28 27 27 27 28 28 29 29 30 30 30 30
25 27 25 23 24 26 27 27 27 27 26 25 24 23 22 23 23 22 22 22 21 18 15 11 10 10 9 11 20 28 28 27 28 28 25 26 30 32 31 30 30 29 27 24 23 22 23 24 26 28 29 30 31 31 31 30 30 29 28 29 30 32 33 34 34 34 33 32 31 30 30 31 30 29 27 27 27 28 28 29 30 30 30 30 31 31
28 29 28 27 26 26 27 28 28 28 26 24 22 21 20 21 21 22 22 24 25 25 24 19 15 15 19 23 28 32 32 31 29 27 25 26 29 31 31 29 26 23 21 20 20 21 23 25 27 28 27 27 26 26 27 28 28 28 29 31 32 33 34 35 35 34 34 33 32 31 30 31 31 30 28 28 28 29 29 30 31 31 31 31 31 31
30 30 30 29 28 26 26 28 29 28 26 24 24 23 22 23 24 25 27 28 28 28 27 22 20 22 26 28 31 34 34 31 28 25 23 23 25 27 26 22 18 17 17 19 22 23 25 26 27 27 26 26 26 27 28 29 30 31 31 32 33 34 34 34 34 34 33 32 30 30 30 30 30 30 29 29 29 30 30 31 31 31 32 32 32 32
30 30 31 31 31 30 30 30 28 25 24 23 24 25 26 27 27 28 30 30 29 27 26 24 26 29 31 32 34 35 32 29 27 26 23 16 18 22 20 15 14 16 19 22 24 25 26 26 26 26 26 26 27 28 29 29 30 32 33 34 34 35 35 35 34 34 32 30 29 28 29 28 29 29 29 29 30 30 30 31 31 32 32 32 32 32
30 30 31 32 32 32 31 29 26 25 25 26 28 30 30 31 30 30 30 30 28 28 29 31 33 34 34 33 33 31 29 28 29 27 21 13 12 14 15 15 16 19 22 24 26 26 26 25 24 23 24 25 26 28 29 30 31 33 35 36 36 36 36 36 36 34 32 31 29 27 26 26 26 27 28 29 29 30 30 31 31 32 32 33 33 33
30 31 32 32 31 29 28 25 24 26 29 32 33 34 35 34 33 32 32 31 30 30 31 33 33 32 31 29 27 25 25 26 28 25 17 9 8 13 17 18 19 21 24 26 26 25 23 22 22 22 23 25 26 28 29 31 33 35 36 36 36 36 35 35 34 32 29 28 26 25 25 25 26 27 27 28 29 30 30 31 31 32 32 33 33 34
31 32 33 33 32 30 29 29 30 32 34 35 35 35 34 33 32 31 31 30 29 28 27 27 23 20 21 22 22 22 25 26 26 23 17 7 8 15 21 22 20 21 23 25 24 21 19 20 22 23 24 26 27 29 30 31 33 35 35 34 33 31 30 29 28 26 25 25 25 25 26 27 28 29 30 30 31 31 32 32 32 32 33 33 34 34
34 36 37 36 35 33 32 32 33 34 35 35 34 33 31 30 29 28 28 27 26 25 23 17 11 10 14 17 18 21 25 24 20 17 16 11 10 15 22 23 21 21 22 22 21 19 19 22 24 26 26 27 28 28 28 30 31 32 31 29 27 26 26 25 25 26 26 26 27 27 29 30 31 32 33 34 34 34 34 34 33 34 33 34 34 34
36 38 38 36 33 31 31 32 33 34 34 34 32 31 30 28 27 25 24 24 24 22 17 12 11 11 11 12 13 17 21 18 15 15 16 16 12 11 18 22 21 19 19 20 20 21 22 24 26 27 26 26 25 25 25 26 27 28 28 27 26 27 28 29 29 29 29 28 29 30 31 32 34 35 36 36 37 36 36 35 35 35 34 34 34 34
34 34 33 30 29 29 30 31 32 32 32 31 31 30 29 27 24 21 20 23 24 21 14 12 11 11 10 9 12 17 20 18 17 18 20 19 12 9 17 20 20 18 18 19 21 23 23 23 24 24 24 23 22 22 23 23 24 25 26 28 30 31 31 31 31 30 30 30 31 32 34 35 37 37 38 38 38 38 38 37 36 35 35 34 33 32
30 30 29 28 27 28 30 30 30 30 29 29 29 29 27 26 23 22 23 25 24 20 14 11 11 11 11 10 14 18 19 19 20 20 20 18 12 12 20 20 19 18 17 16 18 21 22 22 21 21 21 20 20 20 21 22 24 25 26 28 29 30 31 31 31 30 30 31 33 35 36 38 38 39 39 40 39 39 38 37 36 35 33 32 31 30
27 28 28 28 28 28 28 29 28 28 28 28 28 27 26 25 24 24 25 26 23 19 14 12 11 11 11 11 12 12 13 17 19 20 20 15 11 14 21 19 18 17 15 11 10 11 15 18 19 20 19 19 20 21 21 23 24 24 24 25 26 27 28 29 29 30 31 32 34 36 37 38 39 39 39 39 38 37 35 34 33 32 31 29 28 28
28 28 27 27 27 28 28 27 27 26 26 26 26 25 25 24 23 23 24 24 23 21 18 15 15 14 12 10 8 6 6 15 20 21 21 18 15 16 20 17 16 16 15 12 8 6 8 11 16 20 19 20 21 22 23 24 23 22 22 23 25 26 27 28 28 29 31 32 34 35 36 36 37 37 37 34 31 30 29 29 29 29 29 27 26 26
27 26 26 27 27 27 27 26 25 25 25 25 24 23 23 23 23 22 22 22 22 22 22 21 20 19 17 12 9 8 8 18 23 24 23 21 20 21 20 16 14 16 17 17 12 6 7 6 12 19 20 20 21 22 23 23 21 21 22 23 24 26 27 27 27 28 29 31 33 34 34 34 34 33 28 22 20 21 22 22 24 26 27 25 24 24
26 26 26 27 27 26 26 25 25 24 24 24 24 23 23 22 22 22 21 21 21 22 23 22 21 20 20 18 15 15 17 23 26 27 26 23 20 20 19 17 15 16 19 21 18 13 10 7 10 16 20 21 21 21 22 21 20 20 21 22 23 25 27 27 26 26 28 30 31 32 31 30 29 25 16 8 8 12 15 18 21 24 26 25 24 23
26 26 26 26 26 25 25 25 25 25 25 24 24 24 23 22 22 22 22 22 22 22 23 23 22 21 20 16 14 17 23 26 27 28 27 24 20 18 19 17 16 17 17 16 16 16 13 11 9 10 12 18 21 21 20 20 19 19 20 21 22 23 25 25 25 26 28 30 30 28 27 27 24 19 12 8 4 3 7 11 15 20 24 25 24 23
25 25 25 25 25 25 25 25 24 24 24 24 24 23 23 23 23 23 23 23 23 24 25 25 25 25 23 19 15 15 22 27 30 29 28 25 22 20 18 17 18 18 15 11 10 9 7 9 10 9 8 12 16 19 20 18 18 19 20 21 21 22 23 24 25 26 28 29 27 25 24 24 21 16 14 15 15 12 8 5 5 10 15 19 20 21
24 25 25 24 24 24 24 24 24 24 24 24 23 23 23 24 24 24 25 25 26 26 27 27 27 28 28 27 24 23 27 31 33 32 30 26 23 20 18 19 21 21 15 12 9 7 6 7 10 11 10 8 10 14 18 19 18 19 19 20 21 22 24 26 26 26 26 25 23 22 21 20 17 14 15 18 19 19 18 16 13 9 7 8 11 14
24 24 24 24 24 24 24 24 24 24 24 24 24 24 24 24 25 26 26 27 27 28 28 28 29 29 29 29 30 31 33 34 34 33 31 28 26 24 23 24 25 23 18 14 10 8 7 7 8 9 8 7 6 8 12 18 20 20 20 20 21 23 24 26 26 25 23 21 19 19 19 17 15 14 15 18 20 21 21 21 19 17 15 12 9 8
23 23 24 24 24 24 24 24 24 24 24 24 25 25 26 26 27 27 27 27 28 28 28 28 28 28 30 31 33 35 37 37 36 34 31 29 27 27 27 25 25 24 21 19 16 12 8 7 7 7 6 6 8 11 15 18 19 19 20 21 21 22 23 23 23 23 21 19 18 17 16 15 14 14 17 19 20 21 21 21 21 20 19 18 17 15
22 22 23 24 24 24 24 24 24 25 25 26 26 27 27 27 27 27 27 26 26 27 27 27 27 28 31 34 35 35 35 34 33 31 29 29 28 26 25 24 23 23 22 20 18 14 9 6 6 6 7 7 9 13 17 17 17 17 19 21 22 21 20 20 20 21 20 18 16 16 15 14 13 15 18 20 21 21 20 20 19 19 19 19 19 20
23 23 24 24 24 24 24 25 26 26 27 27 27 27 27 26 26 26 26 26 26 26 27 27 28 29 31 31 31 30 29 28 27 27 28 29 28 27 25 23 22 20 18 16 14 13 12 10 9 8 8 7 7 9 12 15 16 17 18 16 15 16 16 18 20 20 18 16 15 14 14 13 13 16 19 21 21 21 20 19 19 18 18 17 17 17
23 23 24 25 25 25 25 26 26 27 27 28 27 27 26 25 25 25 26 26 26 27 27 27 27 27 27 26 25 24 24 25 26 26 28 28 28 27 25 22 20 16 15 14 15 16 16 14 13 12 11 10 9 10 11 14 16 18 17 12 12 15 17 18 18 17 15 14 14 13 12 12 13 17 20 22 21 21 20 20 19 19 19 19 17 15
23 23 24 25 25 26 26 27 27 27 27 27 26 25 25 25 24 24 25 26 26 27 27 26 25 23 22 22 22 23 23 24 25 26 26 26 25 24 22 19 16 15 15 16 16 16 16 15 13 12 12 12 10 8 9 14 17 17 16 15 16 16 15 14 15 16 15 14 13 12 11 11 13 17 20 22 22 22 22 22 22 21 20 20 19 18
23 24 24 25 26 27 27 27 27 26 26 25 25 25 25 25 25 25 25 25 26 26 26 25 22 20 19 20 22 23 24 23 23 23 22 21 20 18 17 16 16 16 15 14 14 14 14 14 13 13 13 14 12 10 8 11 14 16 16 16 15 11 5 7 12 15 14 12 12 11 11 11 13 18 21 23 23 23 24 24 24 24 23 22 22 21
24 25 25 26 26 26 26 26 25 25 25 25 24 25 25 25 25 25 25 24 25 26 24 23 21 20 19 19 20 22 22 21 20 19 18 17 16 15 15 15 16 16 15 14 12 12 12 12 12 12 13 13 13 11 10 10 12 15 15 14 12 7 4 6 10 13 12 11 11 11 11 12 15 19 23 24 25 24 25 26 26 26 25 25 25 24
25 25 25 25 25 25 25 25 25 25 24 24 24 24 26 25 25 25 25 25 25 24 22 21 20 17 14 15 17 19 19 19 17 16 14 13 12 12 13 13 14 15 15 14 13 12 11 10 11 12 13 13 12 12 11 11 13 13 13 9 6 5 5 6 8 10 10 9 9 10 11 13 16 19 21 22 23 24 25 25 25 26 26 26 26 26
25 25 25 25 25 25 25 25 25 25 25 25 24 25 25 25 25 25 25 24 23 22 21 20 18 13 9 11 14 16 15 15 14 13 11 11 11 12 14 14 14 15 15 14 14 13 12 11 11 11 12 11 11 12 13 12 11 9 6 5 4 3 4 4 6 7 8 7 8 9 12 14 17 18 18 19 20 22 24 25 25 25 25 26 27 27
25 25 25 25 25 25 25 25 25 25 25 24 24 25 25 25 25 25 25 23 21 20 19 20 17 14 11 12 13 13 11 11 12 12 12 12 13 14 15 15 15 15 15 14 14 13 12 12 11 11 11 9 7 7 8 9 8 6 5 4 4 4 4 5 5 6 7 6 7 8 11 14 16 17 17 18 19 21 23 25 26 26 25 25 26 26
25 25 25 25 25 25 25 25 25 24 24 24 25 25 26 25 25 24 23 22 20 19 19 18 16 14 13 14 14 13 11 10 11 12 13 14 14 15 15 15 15 15 14 14 13 13 12 10 9 9 10 8 6 4 6 7 7 6 5 4 4 4 4 5 6 6 7 7 8 10 12 13 14 14 15 16 17 18 21 24 26 26 26 26 25 25
25 24 24 24 24 23 24 24 24 24 24 24 24 25 26 26 26 24 22 20 19 18 16 16 14 12 11 12 13 13 13 12 12 12 13 14 15 15 15 16 15 15 14 13 12 11 10 8 5 5 8 10 9 7 7 7 7 7 6 5 5 5 5 5 6 7 8 10 12 13 15 15 15 15 17 15 13 14 18 21 24 26 26 27 26 26
24 24 24 24 23 23 24 24 24 24 23 24 24 24 25 26 25 23 21 19 18 17 16 16 14 12 9 10 12 13 12 11 11 11 12 13 14 15 15 15 15 14 13 11 9 7 7 7 3 3 8 12 13 10 8 8 7 7 6 6 6 6 5 6 6 7 10 12 14 16 17 16 16 17 18 16 13 13 16 18 21 23 25 27 27 27
24 24 24 24 23 23 24 24 23 23 23 23 24 24 24 23 22 21 20 18 17 16 16 16 15 13 10 10 12 12 12 10 10 10 12 13 14 14 14 14 13 12 10 7 4 3 3 3 2 1 5 11 15 14 12 10 8 6 5 6 7 7 6 6 7 8 11 13 15 16 17 16 16 16 16 16 13 10 11 13 16 19 22 25 26 27
Wind_Direction
296 298 299 300 299 298 297 296 296 296 297 298 299 300 301 300 298 297 297 297 297 298 298 298 297 297 296 295 294 294 294 294 293 293 292 292 292 292 292 292 291 291 291 291 290 290 289 288 288 287 287 287 286 286 285 285 284 284 283 283 282 282 281 281 281 281 280 280 280 279 279 278 277 276 276 275 274 273 272 273 274 274 273 271 269 265
296 297 298 298 297 296 294 294 294 295 297 298 300 300 300 299 297 296 295 296 296 297 298 298 297 297 296 295 295 294 294 294 293 293 292 292 292 291 291 291 291 290 290 290 289 289 288 287 287 286 285 285 284 283 283 282 282 282 282 281 281 281 281 281 281 281 281 280 280 279 278 277 276 276 275 275 275 274 274 274 274 273 272 271 270 267
297 297 297 297 296 295 294 295 295 296 297 299 300 300 300 298 296 295 295 295 296 297 298 298 297 297 296 295 294 294 293 293 292 292 291 291 290 290 290 290 290 290 290 289 289 288 287 286 285 285 284 283 283 282 282 281 281 281 281 281 281 280 280 281 281 282 281 280 279 278 277 276 276 275 275 275 275 275 275 275 274 272 271 270 269 267
296 296 297 298 298 296 296 296 297 297 298 299 299 299 298 296 295 294 295 296 297 298 298 298 297 296 295 294 294 293 292 291 290 290 289 289 288 288 288 289 290 291 291 291 290 289 288 287 286 285 284 283 283 282 281 281 280 280 280 280 281 281 280 280 281 281 281 280 278 277 275 275 275 275 275 274 275 275 275 275 273 271 269 268 267 266
294 295 297 299 299 298 298 297 296 296 297 297 297 297 297 296 295 295 296 297 298 298 299 298 297 295 294 293 292 291 289 288 287 287 287 286 287 287 289 291 293 294 294 293 292 291 290 289 288 287 286 285 284 283 282 282 281 281 281 280 281 281 281 281 281 281 280 279 278 276 275 275 274 274 274 274 274 274 275 274 272 270 267 266 266 265
295 296 297 298 297 296 296 294 293 294 295 295 295 295 295 294 295 295 296 297 298 299 299 298 296 294 292 291 290 289 288 287 286 286 286 286 287 288 291 293 294 294 294 293 292 291 291 291 291 290 289 288 287 286 285 284 284 283 282 281 280 281 281 281 281 281 281 281 280 279 278 277 276 275 275 274 274 274 274 274 272 269 267 265 264 264
296 296 296 294 293 291 290 289 290 291 293 294 295 294 293 293 293 294 295 297 298 299 299 298 295 293 290 289 289 289 290 289 288 288 287 288 289 291 293 294 294 293 292 291 291 290 290 291 291 291 290 290 289 288 287 286 285 284 282 281 281 281 280 281 281 281 282 282 282 282 281 279 278 276 275 274 273 273 273 273 271 269 266 263 261 261
295 295 294 292 290 289 288 287 288 290 292 293 294 294 293 293 293 294 295 297 298 299 299 298 296 293 290 290 292 293 294 293 291 290 290 290 291 293 294 294 293 292 290 289 289 288 288 289 289 289 289 290 289 289 289 288 286 284 283 282 281 281 280 280 280 281 281 282 283 283 282 280 277 275 273 272 272 272 272 272 270 267 264 261 259 258
292 293 293 291 290 289 289 288 289 291 292 292 291 292 293 295 295 296 297 297 298 300 301 300 297 294 291 292 294 296 295 292 290 290 290 291 293 294 294 293 292 290 289 288 287 287 287 288 287 287 288 289 290 291 291 291 289 287 286 284 283 281 280 280 280 280 280 280 281 282 282 281 279 276 273 272 271 272 272 271 269 265 261 258 256 256
288 289 289 288 287 286 287 289 291 293 294 292 291 290 292 294 297 298 299 299 300 302 303 302 298 295 293 293 294 294 293 291 290 290 290 292 293 293 293 292 290 289 288 288 288 289 288 288 287 287 288 289 290 290 291 291 291 290 289 287 284 282 280 280 280 279 279 279 279 279 280 281 281 280 278 276 275 275 275 274 270 265 259 256 255 257
287 286 285 285 285 284 285 289 294 297 298 296 294 292 291 293 296 299 300 302 303 304 304 301 298 295 294 295 295 295 294 293 293 292 292 292 292 292 291 290 289 289 289 289 289 289 289 290 291 291 291 290 289 287 286 285 285 286 286 284 282 280 280 280 280 279 278 278 278 278 278 279 280 280 279 279 278 277 277 277 275 271 265 262 260 261
287 286 284 283 284 287 291 295 299 301 302 301 298 296 295 296 299 301 302 303 304 304 302 299 296 295 296 298 299 299 298 296 295 294 293 293 292 291 290 289 289 290 291 290 289 290 292 295 296 296 296 295 293 290 287 285 283 282 281 280 280 280 280 280 280 279 279 280 280 279 279 278 278 277 277 276 275 275 275 275 275 274 272 270 268 266
287 285 283 284 289 295 301 304 304 303 301 299 298 298 299 300 302 302 301 300 299 298 297 296 296 297 298 299 300 300 298 296 294 293 292 292 291 290 288 287 288 289 291 293 295 296 297 297 297 296 297 297 296 294 291 289 286 284 283 282 282 282 282 281 280 279 279 279 279 279 278 276 275 275 274 273 273 272 271 272 272 272 272 272 271 269
287 286 287 291 297 303 305 306 304 301 299 298 297 296 298 299 301 300 298 296 294 294 295 297 298 298 298 299 298 297 295 293 292 291 291 290 289 288 286 285 286 288 291 296 298 298 296 295 294 294 294 295 294 292 291 289 287 286 286 285 285 284 283 283 281 280 279 279 278 277 276 274 273 272 272 271 270 270 269 270 270 270 271 271 271 270
288 291 294 300 304 305 306 305 303 301 300 298 297 297 297 297 297 296 294 293 295 297 299 299 298 298 297 297 296 295 293 291 291 291 290 290 289 287 285 284 285 289 293 296 297 295 293 291 290 291 292 293 292 291 289 289 288 288 288 288 288 287 286 285 284 283 281 279 277 275 274 272 271 270 270 270 270 270 269 270 270 270 270 270 270 270
298 303 305 306 306 305 304 303 302 301 300 299 297 296 295 294 294 293 292 294 297 299 300 299 298 297 296 297 296 295 293 292 291 292 292 291 289 287 287 287 289 292 295 295 294 291 290 288 288 290 291 291 291 290 290 290 290 291 292 291 291 290 289 288 288 288 287 285 282 279 275 272 270 269 269 269 270 270 270 270 270 270 270 270 270 270
308 309 308 305 303 303 303 302 301 299 298 296 294 291 290 289 290 291 292 294 296 298 298 297 296 296 297 299 298 297 296 296 297 297 295 292 290 289 289 289 291 293 293 291 289 287 286 286 288 289 290 290 290 290 290 290 291 292 293 294 294 294 294 293 292 292 291 290 288 285 280 275 270 267 267 268 269 270 271 271 270 270 270 270 269 269
309 307 306 303 302 301 301 300 299 297 294 292 289 287 287 287 289 291 293 294 296 297 297 296 294 294 297 298 298 299 301 304 303 301 296 292 291 290 290 290 290 290 288 286 284 283 284 286 288 290 290 289 289 288 288 288 289 290 292 293 295 295 295 294 293 292 289 287 286 285 283 279 273 268 266 267 268 270 271 271 270 270 269 269 269 269
305 304 303 302 300 299 298 297 295 293 290 289 288 289 290 293 295 298 298 298 299 299 299 297 295 293 292 292 296 298 301 303 300 296 291 289 289 290 290 289 287 285 282 281 282 285 288 291 291 291 290 289 288 288 288 289 290 291 293 295 296 297 297 296 294 292 289 286 284 282 281 280 278 274 271 270 270 271 272 271 271 270 269 268 268 268
303 302 300 299 298 297 295 293 291 290 288 290 293 297 300 304 306 305 303 302 300 299 298 296 294 292 292 292 293 295 297 296 293 289 287 287 288 289 289 287 283 280 280 282 287 292 295 295 294 293 291 290 290 291 292 293 294 295 296 297 298 298 298 297 295 293 290 286 281 278 277 278 279 278 277 275 274 274 273 272 271 270 269 268 267 266
299 297 296 295 295 293 291 290 289 290 292 298 303 307 309 309 307 304 301 300 298 296 295 292 291 291 291 291 291 292 292 290 288 286 287 287 287 286 285 282 280 281 286 290 294 297 298 296 294 293 292 292 293 294 295 296 296 296 297 297 297 297 297 297 296 294 291 287 282 277 275 275 276 276 277 276 275 275 274 273 272 271 269 268 267 266
294 293 293 292 291 289 288 288 290 295 301 307 310 310 308 306 303 300 298 297 295 293 292 290 289 288 288 286 286 286 285 284 284 285 287 284 283 283 283 284 288 292 294 296 298 299 297 294 292 291 292 293 294 294 295 295 295 295 295 295 295 296 296 297 296 296 295 294 289 283 277 275 274 274 274 275 275 275 274 273 272 271 270 268 267 266
290 290 291 290 288 286 286 290 295 302 308 310 309 306 304 302 299 297 296 294 293 292 290 289 288 286 284 281 279 279 280 281 283 283 283 279 280 286 292 300 302 299 297 298 299 298 295 292 290 291 292 294 295 295 295 295 295 295 294 294 294 295 294 294 294 294 294 294 292 289 285 281 279 277 276 276 276 275 274 273 272 271 269 268 267 265
291 291 291 289 287 287 290 298 304 308 309 308 306 304 301 298 296 294 293 292 291 290 289 288 287 285 282 280 279 281 284 287 285 281 279 278 285 294 301 305 304 299 297 297 297 296 293 291 291 292 294 295 295 295 295 295 294 293 293 294 294 294 293 292 292 291 291 290 290 291 291 290 287 284 282 280 278 276 275 274 272 270 269 267 265 263
294 293 292 290 289 291 297 303 306 307 307 306 304 302 300 298 296 294 293 292 290 288 286 285 284 283 285 287 289 292 293 292 287 283 284 286 295 298 301 303 302 298 296 297 296 295 293 293 294 296 296 295 294 294 293 293 292 292 293 295 295 296 296 297 297 297 297 296 296 295 294 292 290 287 284 281 279 276 275 273 271 269 267 265 263 261
296 294 292 291 293 297 302 304 305 305 304 303 302 300 300 299 298 297 294 293 291 290 289 286 283 284 291 295 296 296 295 293 289 289 294 297 299 299 300 302 300 297 295 296 297 297 297 297 298 297 296 294 293 291 291 290 291 293 296 298 301 304 307 308 309 308 305 303 300 298 296 293 290 288 285 282 279 276 273 271 269 268 266 264 261 259
295 294 293 295 298 302 305 305 305 304 303 302 301 300 300 300 299 297 294 294 294 294 292 288 287 290 293 294 294 294 295 295 298 301 302 300 298 297 300 302 300 297 295 295 297 298 299 298 298 297 295 293 291 290 289 290 293 296 300 304 309 312 313 312 310 308 305 302 300 299 298 296 293 290 286 282 279 275 272 269 266 265 263 261 259 257
295 295 297 300 303 305 305 305 305 304 303 302 301 301 301 299 297 294 292 294 294 293 289 286 288 292 293 292 293 294 295 298 302 304 305 301 295 292 298 301 300 298 297 298 299 300 299 298 296 295 294 292 291 290 291 294 297 300 303 306 309 311 311 310 308 306 304 303 302 301 300 298 295 292 288 283 279 274 269 265 263 261 259 257 255 253
299 301 303 305 306 306 306 306 305 303 303 302 301 301 300 296 292 289 290 292 292 290 285 285 288 292 294 294 294 295 295 297 301 305 308 303 295 292 298 300 299 299 301 303 303 302 300 298 297 295 293 293 294 295 297 299 300 301 303 305 306 308 308 307 306 306 305 304 303 302 301 299 296 293 290 285 280 273 267 261 258 255 253 251 248 247
305 306 307 307 307 307 306 305 304 303 301 301 300 299 297 293 289 286 287 288 288 288 288 291 293 295 295 295 295 294 294 299 304 309 311 306 297 295 299 298 298 302 308 310 309 304 302 300 299 297 296 297 298 299 300 300 300 300 302 303 305 305 305 305 305 304 304 303 302 302 301 299 298 296 293 287 279 270 262 256 251 248 245 242 241 240
308 308 308 307 307 307 306 305 303 302 301 300 299 297 296 292 289 286 286 287 288 290 294 296 297 296 296 297 297 297 299 303 307 311 310 304 296 294 297 297 298 303 310 314 312 306 304 302 301 300 298 299 299 299 299 299 298 300 302 303 304 304 304 303 303 303 303 303 302 302 302 301 300 298 294 286 274 263 255 249 243 239 235 233 233 233
308 308 308 307 307 306 305 304 303 301 300 300 298 296 295 293 291 289 288 289 291 293 294 295 295 296 297 297 297 297 300 303 305 307 305 299 294 292 293 293 297 303 308 307 304 298 300 302 302 301 299 299 298 298 297 297 298 300 303 304 303 302 303 302 302 302 303 304 304 304 303 302 302 301 296 281 263 253 248 243 236 231 227 225 226 228
308 308 307 307 306 305 304 303 302 301 300 300 299 298 297 295 294 293 293 292 292 293 293 294 295 296 298 297 295 294 295 298 300 301 300 296 293 291 292 294 298 304 306 304 297 289 286 288 297 299 299 298 297 297 297 298 299 301 303 302 300 299 301 302 303 304 305 306 307 306 305 304 305 309 313 290 246 240 240 238 233 228 225 222 223 225
309 308 307 306 306 305 304 303 303 302 301 300 300 299 298 297 297 296 296 295 293 293 293 294 295 296 297 297 295 294 294 295 296 297 297 294 291 290 293 296 302 306 306 302 296 290 285 285 290 296 299 298 298 296 296 298 300 301 302 300 298 297 299 303 305 307 308 308 308 308 307 309 312 323 354 35 78 175 217 224 226 225 224 222 221 221
309 308 307 307 307 306 305 305 304 303 302 302 301 300 300 299 299 298 297 295 294 293 292 292 292 292 292 293 292 292 293 294 294 294 293 291 289 290 294 299 304 306 303 298 292 290 286 287 290 293 297 298 298 297 297 299 301 303 303 302 300 299 301 304 307 309 309 309 309 310 313 317 322 338 16 47 64 75 88 117 171 201 212 215 215 215
309 308 308 308 308 307 307 306 305 304 304 303 302 302 301 300 299 297 296 294 293 292 290 288 287 286 286 286 286 287 289 290 291 290 288 287 288 292 297 301 303 302 298 293 290 288 288 289 291 293 294 295 297 298 300 302 305 306 306 305 303 303 303 305 307 309 310 309 310 313 320 325 334 353 26 48 60 67 71 74 80 95 131 171 190 198
309 309 309 309 309 308 308 307 306 306 305 304 304 302 301 300 299 297 296 293 291 289 288 286 284 283 282 281 281 282 283 285 285 285 284 285 290 294 297 297 297 295 292 290 289 289 288 288 290 291 291 291 294 300 304 307 308 308 307 306 305 304 303 305 309 312 314 313 315 320 327 333 344 6 33 47 56 62 66 67 68 71 79 92 111 136
310 310 310 310 310 309 308 307 307 306 305 305 304 303 302 300 298 297 295 293 290 289 288 287 285 283 283 281 280 280 281 281 281 282 284 287 290 292 291 291 290 289 287 285 285 286 286 287 292 294 294 293 294 298 303 306 308 308 308 307 305 303 302 305 313 319 322 323 326 329 334 341 357 19 38 47 51 54 56 57 60 63 68 74 80 88
311 310 310 310 310 309 308 307 306 306 305 304 303 303 302 300 299 298 296 294 293 291 290 288 286 285 285 283 282 281 280 281 283 287 289 290 288 286 285 285 285 286 285 283 282 284 287 292 296 298 300 299 298 299 300 303 305 307 308 308 306 303 303 310 319 326 330 334 335 336 339 349 9 30 41 45 46 45 44 45 49 55 60 65 71 76
311 310 310 309 309 308 307 306 306 305 305 304 303 303 302 301 301 300 299 298 297 296 294 292 289 287 285 284 282 282 283 286 290 291 291 288 285 283 281 281 281 283 286 290 294 298 301 299 297 295 295 295 298 299 299 300 301 303 306 307 306 306 309 317 324 330 336 344 344 341 342 356 19 36 44 45 44 42 40 41 43 49 53 57 61 66
311 310 309 309 308 307 306 305 305 305 305 304 304 304 304 304 303 303 303 302 301 300 299 296 293 290 287 285 285 288 290 292 292 290 288 287 285 283 280 279 282 289 300 306 307 304 300 296 292 290 290 291 293 295 296 297 298 299 300 298 298 303 309 318 327 335 345 353 354 349 350 5 28 43 48 48 46 44 44 45 45 46 51 55 58 61
310 309 308 308 308 308 307 306 305 305 305 305 305 305 305 305 304 304 304 304 304 303 302 300 296 293 291 293 295 297 297 295 292 291 289 287 286 283 281 282 288 297 304 304 301 296 292 289 288 289 290 293 294 295 294 294 295 295 294 293 296 301 308 319 330 339 351 360 2 0 1 16 35 47 52 51 49 49 50 51 51 51 51 52 55 59
309 308 307 307 307 307 307 306 306 306 307 307 306 305 305 305 305 304 304 303 303 303 301 299 297 297 298 301 303 303 301 298 295 293 291 289 287 285 284 287 292 295 295 293 291 290 289 288 288 288 290 292 292 290 289 291 293 293 291 291 294 298 305 327 332 337 350 4 11 11 13 27 44 54 57 56 54 53 53 54 55 56 55 56 57 60
309 308 308 308 308 308 308 308 308 308 308 308 306 305 305 305 304 304 303 302 302 301 300 300 300 302 303 303 304 304 303 300 298 296 294 292 291 292 293 294 293 291 287 282 281 285 288 290 289 289 290 290 289 288 288 289 290 290 288 288 290 293 302 317 323 329 344 5 19 24 26 39 53 59 60 58 55 54 54 55 57 58 60 62 63 63
309 309 309 310 310 310 309 309 309 309 308 307 306 305 306 305 305 304 303 302 300 299 299 301 304 306 305 304 303 303 304 303 302 302 303 304 305 306 305 302 297 292 287 280 276 277 283 288 292 294 294 291 287 283 282 281 282 283 285 290 296 302 304 305 313 324 337 2 23 33 39 49 58 61 60 56 52 51 51 53 55 58 61 64 66 66
310 311 311 311 311 310 310 309 310 310 309 308 306 306 306 306 306 305 303 301 299 298 300 304 306 306 302 301 303 304 305 305 307 311 317 320 320 318 315 311 306 301 295 288 281 278 279 284 292 298 300 295 287 279 274 275 277 282 291 307 323 328 317 313 320 330 343 4 27 42 49 57 62 64 62 57 52 50 51 53 55 57 61 66 69 70
311 311 311 311 310 310 310 310 310 310 310 309 308 307 307 307 307 306 304 302 300 300 305 308 307 304 300 301 303 304 306 309 314 320 325 326 324 321 319 316 313 308 302 294 287 281 278 281 290 298 301 298 291 287 287 292 297 306 317 329 341 351 357 355 347 347 0 20 38 50 57 62 64 66 66 63 57 52 51 52 55 58 62 67 71 73
311 311 310 310 310 309 310 310 310 310 309 309 308 308 309 309 308 306 304 303 303 305 308 310 308 304 301 301 303 305 309 314 320 324 325 325 324 324 323 321 319 314 308 299 289 280 275 277 288 303 309 308 307 308 316 321 324 328 335 347 357 4 5 4 3 10 26 44 57 62 65 67 70 72 72 68 62 56 52 50 53 57 62 67 71 74
310 309 309 309 309 308 309 309 310 309 308 308 308 308 309 309 308 306 304 304 306 308 310 309 307 305 303 303 305 309 313 318 321 323 324 325 326 326 326 325 324 321 316 308 295 278 263 256 273 325 344 345 340 330 323 325 330 339 351 4 12 13 10 10 18 33 50 62 68 71 72 73 75 78 79 75 69 61 56 52 53 57 62 67 72 75
309 309 309 309 308 307 307 308 308 308 307 307 307 307 308 309 308 306 305 305 307 310 310 308 307 305 303 305 309 314 318 321 322 323 324 326 328 328 328 328 328 327 324 317 300 269 239 220 222 359 15 16 11 1 346 335 335 346 2 14 19 18 14 14 28 49 65 71 73 74 74 73 74 77 79 79 75 68 62 57 54 56 64 70 74 77
310 309 309 308 308 307 307 307 307 306 305 305 306 306 306 306 306 306 307 309 310 311 311 309 307 306 307 310 314 318 321 321 321 322 324 327 329 330 329 329 330 331 329 323 305 270 204 176 166 40 20 22 24 23 13 359 348 349 3 11 15 17 18 23 43 63 72 74 74 73 72 69 69 71 76 79 78 72 65 59 53 55 65 73 77 80